METRO LLNV-LLNV

Flight info

Callsign METRO
Flight time 1h 15m
Altitude 3500
Route NCITY GORAL ZLHAV BKAMA BHAIL GVARM ASKLN NITZA ZDAFA NMASD
Aircraft C130/L-SDGRWY/XPDR

Departure

Time 2026-05-05 16:55
Airport Nevatim Air Base (LLNV)

Arrival

Time 2026-05-05 18:10
Airport Nevatim Air Base (LLNV)
Time Latitude Longitude Altitude Speed Heading
2026-05-05 16:49 31.18831 35.03176 1338 ft 0 kts 347°
2026-05-05 16:49 31.18838 35.03174 1332 ft 5 kts 348°
2026-05-05 16:49 31.18876 35.03189 1338 ft 5 kts 64°
2026-05-05 16:50 31.18894 35.03221 1338 ft 4 kts 37°
2026-05-05 16:50 31.18936 35.03218 1338 ft 13 kts 346°
2026-05-05 16:50 31.19007 35.03203 1338 ft 8 kts 13°
2026-05-05 16:50 31.19038 35.03276 1337 ft 14 kts 76°
2026-05-05 16:51 31.19064 35.03405 1337 ft 18 kts 77°
2026-05-05 16:51 31.19089 35.03534 1337 ft 15 kts 77°
2026-05-05 16:51 31.19110 35.03639 1337 ft 12 kts 77°
2026-05-05 16:51 31.19150 35.03686 1337 ft 7 kts 352°
2026-05-05 16:52 31.19198 35.03674 1336 ft 13 kts 346°
2026-05-05 16:52 31.19288 35.03646 1332 ft 12 kts 346°
2026-05-05 16:52 31.19331 35.03595 1331 ft 7 kts 269°
2026-05-05 16:52 31.19328 35.03572 1331 ft 0 kts 257°
2026-05-05 16:54 31.19182 35.02840 1329 ft 202 kts 257°
2026-05-05 16:54 31.18822 35.01009 1456 ft 233 kts 258°
2026-05-05 16:55 31.18478 34.99325 1690 ft 180 kts 262°
2026-05-05 16:55 31.18197 34.97633 2083 ft 242 kts 263°
2026-05-05 16:55 31.17907 34.95760 2596 ft 235 kts 263°
2026-05-05 16:55 31.17601 34.93852 3047 ft 242 kts 262°
2026-05-05 16:56 31.17496 34.91944 3325 ft 239 kts 278°
2026-05-05 16:56 31.17735 34.90010 3442 ft 239 kts 283°
2026-05-05 16:56 31.18093 34.88124 3512 ft 242 kts 285°
2026-05-05 16:56 31.18495 34.86253 3537 ft 232 kts 287°
2026-05-05 16:57 31.18918 34.84401 3550 ft 232 kts 288°
2026-05-05 16:57 31.19411 34.82598 3562 ft 239 kts 300°
2026-05-05 16:57 31.20512 34.81159 3567 ft 236 kts 320°
2026-05-05 16:57 31.21845 34.80040 3562 ft 240 kts 326°
2026-05-05 16:58 31.23268 34.79046 3560 ft 237 kts 330°
2026-05-05 16:58 31.24791 34.78251 3560 ft 240 kts 348°
2026-05-05 16:58 31.26303 34.78210 3566 ft 244 kts
2026-05-05 16:58 31.27963 34.78476 3542 ft 242 kts
2026-05-05 16:59 31.29694 34.78855 3509 ft 255 kts 12°
2026-05-05 16:59 31.31407 34.79344 3505 ft 257 kts 15°
2026-05-05 16:59 31.33145 34.79675 3502 ft 252 kts
2026-05-05 16:59 31.34916 34.79649 3498 ft 253 kts 356°
2026-05-05 17:00 31.36661 34.79458 3501 ft 256 kts 352°
2026-05-05 17:00 31.38386 34.79049 3503 ft 250 kts 343°
2026-05-05 17:00 31.40046 34.78350 3498 ft 253 kts 335°
2026-05-05 17:00 31.41589 34.77453 3498 ft 254 kts 333°
2026-05-05 17:01 31.43166 34.76544 3507 ft 250 kts 334°
2026-05-05 17:01 31.44755 34.75655 3496 ft 254 kts 334°
2026-05-05 17:01 31.46334 34.74787 3506 ft 253 kts 334°
2026-05-05 17:01 31.47933 34.73924 3500 ft 249 kts 335°
2026-05-05 17:02 31.49507 34.73013 3496 ft 254 kts 331°
2026-05-05 17:02 31.51034 34.72021 3500 ft 252 kts 329°
2026-05-05 17:02 31.52551 34.70976 3499 ft 250 kts 328°
2026-05-05 17:02 31.54049 34.69914 3505 ft 255 kts 328°
2026-05-05 17:03 31.55516 34.68859 3501 ft 250 kts 328°
2026-05-05 17:03 31.57016 34.67775 3426 ft 253 kts 328°
2026-05-05 17:03 31.58503 34.66696 3275 ft 253 kts 328°
2026-05-05 17:03 31.59991 34.65619 3125 ft 248 kts 328°
2026-05-05 17:04 31.61479 34.64559 2973 ft 250 kts 328°
2026-05-05 17:04 31.62956 34.63519 2849 ft 242 kts 328°
2026-05-05 17:04 31.64409 34.62500 2727 ft 246 kts 329°
2026-05-05 17:04 31.65827 34.61509 2605 ft 237 kts 329°
2026-05-05 17:05 31.67244 34.60520 2269 ft 227 kts 329°
2026-05-05 17:05 31.68483 34.59657 1753 ft 207 kts 329°
2026-05-05 17:05 31.69715 34.58816 1355 ft 204 kts 335°
2026-05-05 17:05 31.71069 34.58358 1160 ft 203 kts 353°
2026-05-05 17:06 31.72471 34.58492 1080 ft 204 kts 14°
2026-05-05 17:06 31.73784 34.59111 1042 ft 204 kts 26°
2026-05-05 17:06 31.75045 34.59873 1023 ft 204 kts 28°
2026-05-05 17:06 31.76285 34.60682 1011 ft 204 kts 29°
2026-05-05 17:07 31.77505 34.61505 999 ft 188 kts 30°
2026-05-05 17:07 31.78617 34.62267 992 ft 182 kts 30°
2026-05-05 17:07 31.79649 34.62980 991 ft 176 kts 30°
2026-05-05 17:07 31.80711 34.63722 1000 ft 167 kts 31°
2026-05-05 17:08 31.81692 34.64397 999 ft 167 kts 21°
2026-05-05 17:08 31.82756 34.64265 1040 ft 165 kts 308°
2026-05-05 17:08 31.83068 34.63054 1166 ft 164 kts 262°
2026-05-05 17:08 31.82805 34.61771 1099 ft 191 kts 256°
2026-05-05 17:09 31.82487 34.60039 1418 ft 220 kts 259°
2026-05-05 17:09 31.82207 34.58246 1277 ft 221 kts 260°
2026-05-05 17:09 31.81949 34.56458 1139 ft 222 kts 261°
2026-05-05 17:09 31.81702 34.54672 1066 ft 221 kts 261°
2026-05-05 17:10 31.81459 34.52888 1029 ft 221 kts 261°
2026-05-05 17:10 31.81218 34.51101 1010 ft 221 kts 261°
2026-05-05 17:10 31.80977 34.49321 1002 ft 221 kts 261°
2026-05-05 17:10 31.80722 34.47537 998 ft 221 kts 261°
2026-05-05 17:11 31.80466 34.45802 999 ft 221 kts 260°
2026-05-05 17:11 31.80196 34.43997 1000 ft 221 kts 260°
2026-05-05 17:11 31.79927 34.42215 1000 ft 221 kts 260°
2026-05-05 17:11 31.79658 34.40433 999 ft 221 kts 260°
2026-05-05 17:12 31.79375 34.38656 998 ft 221 kts 259°
2026-05-05 17:12 31.79070 34.36883 999 ft 221 kts 258°
2026-05-05 17:12 31.78754 34.35113 1000 ft 221 kts 258°
2026-05-05 17:12 31.78435 34.33343 1000 ft 221 kts 258°
2026-05-05 17:13 31.78113 34.31571 1000 ft 222 kts 258°
2026-05-05 17:13 31.77794 34.29826 1001 ft 221 kts 258°
2026-05-05 17:13 31.77471 34.28058 1000 ft 221 kts 258°
2026-05-05 17:13 31.77147 34.26290 1000 ft 221 kts 258°
2026-05-05 17:14 31.76822 34.24520 1000 ft 221 kts 258°
2026-05-05 17:14 31.76498 34.22757 1000 ft 221 kts 258°
2026-05-05 17:14 31.76174 34.20987 1001 ft 221 kts 258°
2026-05-05 17:14 31.75850 34.19218 1000 ft 221 kts 258°
2026-05-05 17:15 31.75526 34.17451 1000 ft 221 kts 258°
2026-05-05 17:15 31.75202 34.15685 1000 ft 221 kts 258°
2026-05-05 17:15 31.74881 34.13938 1000 ft 222 kts 258°
2026-05-05 17:15 31.74552 34.12147 1001 ft 221 kts 258°
2026-05-05 17:16 31.74232 34.10404 1000 ft 221 kts 258°
2026-05-05 17:16 31.73908 34.08634 999 ft 222 kts 258°
2026-05-05 17:16 31.73583 34.06866 998 ft 221 kts 258°
2026-05-05 17:16 31.73259 34.05101 1000 ft 221 kts 258°
2026-05-05 17:17 31.72944 34.03395 991 ft 199 kts 257°
2026-05-05 17:17 31.72636 34.01790 994 ft 201 kts 257°
2026-05-05 17:17 31.72322 34.00188 998 ft 202 kts 258°
2026-05-05 17:17 31.72100 33.98564 1002 ft 201 kts 263°
2026-05-05 17:18 31.71977 33.96950 1002 ft 201 kts 267°
2026-05-05 17:18 31.72000 33.95307 1002 ft 201 kts 275°
2026-05-05 17:18 31.72194 33.93681 1003 ft 201 kts 281°
2026-05-05 17:18 31.72510 33.92079 1001 ft 201 kts 284°
2026-05-05 17:19 31.72843 33.90484 1001 ft 201 kts 283°
2026-05-05 17:19 31.73168 33.88883 1002 ft 201 kts 283°
2026-05-05 17:19 31.73489 33.87281 1000 ft 201 kts 283°
2026-05-05 17:19 31.73807 33.85681 999 ft 201 kts 283°
2026-05-05 17:20 31.74125 33.84080 999 ft 201 kts 283°
2026-05-05 17:20 31.74438 33.82500 1001 ft 201 kts 283°
2026-05-05 17:20 31.74750 33.80896 1000 ft 201 kts 282°
2026-05-05 17:20 31.75052 33.79292 1000 ft 201 kts 282°
2026-05-05 17:21 31.75348 33.77686 1001 ft 201 kts 282°
2026-05-05 17:21 31.75660 33.75980 1010 ft 220 kts 282°
2026-05-05 17:21 31.76094 33.74266 1009 ft 221 kts 300°
2026-05-05 17:22 31.78653 33.72666 962 ft 221 kts 353°
2026-05-05 17:22 31.80020 33.72544 1000 ft 214 kts 357°
2026-05-05 17:22 31.81607 33.72512 997 ft 269 kts
2026-05-05 17:22 31.83466 33.72613 994 ft 268 kts 10°
2026-05-05 17:23 31.85229 33.73280 999 ft 267 kts 26°
2026-05-05 17:23 31.86655 33.74636 1010 ft 267 kts 56°
2026-05-05 17:23 31.87331 33.76651 1008 ft 267 kts 77°
2026-05-05 17:23 31.87744 33.78782 1000 ft 267 kts 77°
2026-05-05 17:24 31.88012 33.80933 1000 ft 267 kts 90°
2026-05-05 17:24 31.87829 33.83100 1001 ft 266 kts 103°
2026-05-05 17:24 31.87427 33.85225 996 ft 267 kts 101°
2026-05-05 17:24 31.87095 33.87339 997 ft 266 kts 99°
2026-05-05 17:25 31.86806 33.89486 998 ft 266 kts 101°
2026-05-05 17:25 31.86537 33.90925 998 ft 266 kts 105°
2026-05-05 17:25 31.85573 33.93555 1003 ft 266 kts 124°
2026-05-05 17:25 31.84305 33.95117 1006 ft 265 kts 148°
2026-05-05 17:26 31.82570 33.95739 1012 ft 264 kts 183°
2026-05-05 17:26 31.80779 33.95314 1004 ft 263 kts 200°
2026-05-05 17:26 31.79241 33.94195 1007 ft 263 kts 231°
2026-05-05 17:26 31.78498 33.92264 1007 ft 262 kts 261°
2026-05-05 17:27 31.78457 33.90162 1000 ft 262 kts 279°
2026-05-05 17:27 31.78773 33.88052 996 ft 262 kts 281°
2026-05-05 17:27 31.79124 33.85951 989 ft 262 kts 281°
2026-05-05 17:27 31.79492 33.83850 995 ft 262 kts 282°
2026-05-05 17:28 31.79886 33.81761 993 ft 262 kts 284°
2026-05-05 17:28 31.80374 33.79695 996 ft 262 kts 288°
2026-05-05 17:28 31.81252 33.77862 1004 ft 263 kts 314°
2026-05-05 17:28 31.82843 33.76821 1012 ft 264 kts 350°
2026-05-05 17:29 31.84653 33.76900 1005 ft 265 kts 11°
2026-05-05 17:29 31.86391 33.77606 1003 ft 265 kts 34°
2026-05-05 17:29 31.87537 33.79246 1009 ft 266 kts 70°
2026-05-05 17:29 31.87499 33.81356 1031 ft 267 kts 112°
2026-05-05 17:30 31.86916 33.83420 1017 ft 266 kts 102°
2026-05-05 17:30 31.86626 33.85566 1006 ft 266 kts 97°
2026-05-05 17:30 31.86451 33.87734 1002 ft 266 kts 94°
2026-05-05 17:30 31.86340 33.89903 999 ft 266 kts 92°
2026-05-05 17:31 31.86278 33.92080 999 ft 266 kts 91°
2026-05-05 17:31 31.85978 33.94213 1003 ft 266 kts 112°
2026-05-05 17:31 31.84836 33.95828 1032 ft 265 kts 164°
2026-05-05 17:31 31.83028 33.95693 1045 ft 263 kts 194°
2026-05-05 17:32 31.81269 33.95096 1022 ft 263 kts 199°
2026-05-05 17:32 31.79761 33.94023 1040 ft 262 kts 239°
2026-05-05 17:32 31.79129 33.92027 1031 ft 262 kts 261°
2026-05-05 17:32 31.79087 33.89925 1015 ft 263 kts 274°
2026-05-05 17:33 31.79220 33.87755 1003 ft 262 kts 275°
2026-05-05 17:33 31.79394 33.85624 998 ft 262 kts 276°
2026-05-05 17:33 31.79595 33.83494 997 ft 262 kts 277°
2026-05-05 17:33 31.79823 33.81367 996 ft 262 kts 278°
2026-05-05 17:34 31.80191 33.79271 997 ft 262 kts 285°
2026-05-05 17:34 31.80755 33.77265 997 ft 262 kts 296°
2026-05-05 17:34 31.82039 33.75798 1010 ft 264 kts 338°
2026-05-05 17:34 31.83846 33.75652 1012 ft 265 kts 14°
2026-05-05 17:35 31.85494 33.76596 1004 ft 265 kts 36°
2026-05-05 17:35 31.86824 33.78085 999 ft 266 kts 60°
2026-05-05 17:35 31.87378 33.80142 1003 ft 266 kts 88°
2026-05-05 17:35 31.87300 33.82302 995 ft 266 kts 94°
2026-05-05 17:36 31.87182 33.84489 990 ft 266 kts 94°
2026-05-05 17:36 31.87063 33.86659 991 ft 266 kts 94°
2026-05-05 17:36 31.86944 33.88803 993 ft 266 kts 94°
2026-05-05 17:36 31.86824 33.90975 995 ft 266 kts 94°
2026-05-05 17:37 31.86697 33.93147 997 ft 266 kts 94°
2026-05-05 17:37 31.86576 33.95317 996 ft 266 kts 92°
2026-05-05 17:37 31.86507 33.97528 993 ft 266 kts 91°
2026-05-05 17:37 31.86488 33.99667 995 ft 266 kts 90°
2026-05-05 17:38 31.86441 34.01844 999 ft 266 kts 93°
2026-05-05 17:38 31.86137 34.03979 1006 ft 266 kts 112°
2026-05-05 17:38 31.85134 34.05788 1009 ft 266 kts 136°
2026-05-05 17:38 31.83623 34.07006 1009 ft 265 kts 161°
2026-05-05 17:39 31.81818 34.07332 1011 ft 264 kts 185°
2026-05-05 17:39 31.80022 34.06932 1005 ft 263 kts 204°
2026-05-05 17:39 31.78575 34.05673 1015 ft 263 kts 238°
2026-05-05 17:39 31.77949 34.03707 1007 ft 262 kts 265°
2026-05-05 17:40 31.77958 34.01567 996 ft 262 kts 275°
2026-05-05 17:40 31.78171 33.99440 992 ft 262 kts 279°
2026-05-05 17:40 31.78499 33.97332 996 ft 262 kts 282°
2026-05-05 17:40 31.78892 33.95240 992 ft 262 kts 280°
2026-05-05 17:41 31.79165 33.93121 994 ft 262 kts 277°
2026-05-05 17:41 31.79372 33.90992 995 ft 262 kts 276°
2026-05-05 17:41 31.79550 33.88888 996 ft 262 kts 275°
2026-05-05 17:41 31.79717 33.86753 998 ft 262 kts 275°
2026-05-05 17:42 31.79879 33.84620 998 ft 262 kts 275°
2026-05-05 17:42 31.80026 33.82483 999 ft 263 kts 274°
2026-05-05 17:42 31.80159 33.80347 999 ft 262 kts 274°
2026-05-05 17:42 31.80353 33.78219 1001 ft 262 kts 282°
2026-05-05 17:43 31.80928 33.76191 1002 ft 262 kts 297°
2026-05-05 17:43 31.82002 33.74472 1006 ft 263 kts 321°
2026-05-05 17:43 31.83674 33.73709 1018 ft 264 kts
2026-05-05 17:43 31.85331 33.74479 1019 ft 266 kts 40°
2026-05-05 17:44 31.86469 33.76170 1004 ft 266 kts 64°
2026-05-05 17:44 31.87077 33.78219 999 ft 266 kts 81°
2026-05-05 17:44 31.87269 33.80384 992 ft 266 kts 88°
2026-05-05 17:44 31.87240 33.82558 991 ft 266 kts 92°
2026-05-05 17:45 31.87161 33.84723 989 ft 257 kts 92°
2026-05-05 17:45 31.87076 33.86832 995 ft 265 kts 93°
2026-05-05 17:45 31.86983 33.88997 995 ft 265 kts 93°
2026-05-05 17:45 31.86893 33.91165 997 ft 265 kts 92°
2026-05-05 17:46 31.86818 33.93299 997 ft 264 kts 92°
2026-05-05 17:46 31.86748 33.95457 997 ft 264 kts 92°
2026-05-05 17:46 31.86683 33.97588 997 ft 264 kts 92°
2026-05-05 17:46 31.86619 33.99748 998 ft 264 kts 92°
2026-05-05 17:47 31.86555 34.01903 1000 ft 263 kts 92°
2026-05-05 17:47 31.86471 34.04055 1001 ft 263 kts 93°
2026-05-05 17:47 31.86363 34.06206 1000 ft 263 kts 94°
2026-05-05 17:47 31.86246 34.08355 999 ft 263 kts 94°
2026-05-05 17:48 31.86126 34.10474 999 ft 263 kts 94°
2026-05-05 17:48 31.85999 34.12622 1000 ft 263 kts 94°
2026-05-05 17:48 31.85902 34.14771 1001 ft 263 kts 92°
2026-05-05 17:48 31.85825 34.16923 1000 ft 263 kts 92°
2026-05-05 17:49 31.85755 34.19072 999 ft 263 kts 92°
2026-05-05 17:49 31.85690 34.21223 999 ft 263 kts 92°
2026-05-05 17:49 31.85626 34.23374 1000 ft 263 kts 92°
2026-05-05 17:49 31.85563 34.25524 1001 ft 263 kts 92°
2026-05-05 17:50 31.85501 34.27674 1000 ft 263 kts 92°
2026-05-05 17:50 31.85440 34.29825 1000 ft 263 kts 92°
2026-05-05 17:50 31.85378 34.31977 999 ft 263 kts 92°
2026-05-05 17:50 31.85316 34.34126 999 ft 263 kts 92°
2026-05-05 17:51 31.85255 34.36249 999 ft 263 kts 92°
2026-05-05 17:51 31.85193 34.38399 1001 ft 263 kts 92°
2026-05-05 17:51 31.85132 34.40549 1001 ft 263 kts 92°
2026-05-05 17:51 31.85070 34.42698 1001 ft 263 kts 92°
2026-05-05 17:52 31.84993 34.44849 999 ft 263 kts 92°
2026-05-05 17:52 31.84909 34.46981 999 ft 263 kts 92°
2026-05-05 17:52 31.84820 34.49131 1000 ft 263 kts 93°
2026-05-05 17:52 31.84729 34.51277 1000 ft 263 kts 93°
2026-05-05 17:53 31.84637 34.53427 1001 ft 263 kts 93°
2026-05-05 17:53 31.84547 34.55578 1017 ft 263 kts 92°
2026-05-05 17:53 31.84472 34.57729 1019 ft 263 kts 92°
2026-05-05 17:53 31.84402 34.59880 1012 ft 263 kts 92°
2026-05-05 17:54 31.84336 34.62029 1010 ft 263 kts 92°
2026-05-05 17:54 31.84269 34.64179 1003 ft 263 kts 92°
2026-05-05 17:54 31.84202 34.66327 1003 ft 263 kts 92°
2026-05-05 17:54 31.84133 34.68477 998 ft 263 kts 92°
2026-05-05 17:55 31.84059 34.70626 999 ft 263 kts 93°
2026-05-05 17:55 31.83976 34.72774 1000 ft 263 kts 92°
2026-05-05 17:55 31.83897 34.74921 998 ft 263 kts 92°
2026-05-05 17:55 31.83821 34.77062 999 ft 263 kts 92°
2026-05-05 17:56 31.83743 34.79222 1003 ft 263 kts 93°
2026-05-05 17:56 31.83651 34.81403 1000 ft 264 kts 93°
2026-05-05 17:56 31.83537 34.83499 997 ft 263 kts 94°
2026-05-05 17:56 31.83440 34.85620 998 ft 263 kts 93°
2026-05-05 17:57 31.83358 34.87769 1000 ft 263 kts 92°
2026-05-05 17:57 31.83296 34.89920 998 ft 263 kts 92°
2026-05-05 17:57 31.83244 34.92071 998 ft 263 kts 91°
2026-05-05 17:57 31.83198 34.94212 1285 ft 263 kts 91°
2026-05-05 17:58 31.83141 34.96447 1806 ft 271 kts 92°
2026-05-05 17:58 31.83062 34.98652 2309 ft 274 kts 92°
2026-05-05 17:58 31.82973 35.00900 2818 ft 277 kts 93°
2026-05-05 17:58 31.82835 35.03167 3318 ft 278 kts 102°
2026-05-05 17:59 31.81827 35.05072 3894 ft 281 kts 145°
2026-05-05 17:59 31.80029 35.05901 4418 ft 285 kts 168°
2026-05-05 17:59 31.78060 35.06023 4791 ft 285 kts 186°
2026-05-05 17:59 31.76094 35.05655 4933 ft 286 kts 194°
2026-05-05 18:00 31.74203 35.04957 4977 ft 286 kts 199°
2026-05-05 18:00 31.72307 35.04273 4986 ft 285 kts 196°
2026-05-05 18:00 31.70389 35.03667 4995 ft 286 kts 195°
2026-05-05 18:00 31.68459 35.03098 4998 ft 285 kts 194°
2026-05-05 18:01 31.66559 35.02553 4997 ft 285 kts 194°
2026-05-05 18:01 31.64631 35.02007 5001 ft 285 kts 194°
2026-05-05 18:01 31.62706 35.01467 5002 ft 285 kts 194°
2026-05-05 18:01 31.60778 35.00927 5002 ft 285 kts 194°
2026-05-05 18:02 31.58848 35.00388 4997 ft 285 kts 194°
2026-05-05 18:02 31.56919 34.99850 4997 ft 285 kts 194°
2026-05-05 18:02 31.54991 34.99308 4999 ft 285 kts 194°
2026-05-05 18:02 31.53074 34.98752 5005 ft 285 kts 194°
2026-05-05 18:03 31.51141 34.98180 4998 ft 285 kts 194°
2026-05-05 18:03 31.49219 34.97607 5003 ft 285 kts 194°
2026-05-05 18:03 31.47299 34.97022 5000 ft 286 kts 195°
2026-05-05 18:03 31.45380 34.96419 5000 ft 285 kts 195°
2026-05-05 18:04 31.43468 34.95802 5005 ft 285 kts 197°
2026-05-05 18:04 31.41581 34.95092 4999 ft 285 kts 199°
2026-05-05 18:04 31.39715 34.94301 4998 ft 285 kts 201°
2026-05-05 18:04 31.37861 34.93479 4992 ft 285 kts 201°
2026-05-05 18:05 31.36020 34.92629 4995 ft 285 kts 202°
2026-05-05 18:05 31.34182 34.91760 4997 ft 284 kts 202°
2026-05-05 18:05 31.32358 34.90881 5000 ft 279 kts 200°
2026-05-05 18:05 31.30512 34.90602 4852 ft 274 kts 174°
2026-05-05 18:06 31.28699 34.91238 4605 ft 273 kts 156°
2026-05-05 18:06 31.28116 34.91555 4523 ft 273 kts 153°
2026-05-05 18:06 31.25449 34.93493 4140 ft 271 kts 148°
2026-05-05 18:06 31.23843 34.94645 3898 ft 270 kts 149°
2026-05-05 18:07 31.22222 34.95742 3649 ft 269 kts 149°
2026-05-05 18:07 31.20662 34.96946 3399 ft 268 kts 144°
2026-05-05 18:07 31.19196 34.98284 3199 ft 267 kts 139°
2026-05-05 18:07 31.17901 34.99755 3115 ft 234 kts 131°
2026-05-05 18:08 31.17077 35.01200 3053 ft 213 kts 115°
2026-05-05 18:08 31.16738 35.02264 3029 ft 212 kts 103°
2026-05-05 18:08 31.16586 35.03968 3015 ft 213 kts 88°
2026-05-05 18:08 31.16765 35.05678 3007 ft 212 kts 79°
2026-05-05 18:09 31.17091 35.07317 2993 ft 189 kts 73°
2026-05-05 18:09 31.17510 35.08650 2980 ft 174 kts 65°
2026-05-05 18:09 31.18296 35.09637 2954 ft 170 kts 13°
2026-05-05 18:09 31.19474 35.09512 2659 ft 178 kts 330°
2026-05-05 18:10 31.19475 35.09512 2662 ft 178 kts 330°
2026-05-05 18:10 31.19489 35.09493 2139 ft 17 kts 22°
2026-05-05 18:10 31.19661 35.09274 2420 ft 110 kts 311°
2026-05-05 18:11 31.20031 35.08509 2105 ft 104 kts 288°
2026-05-05 18:11 31.20097 35.07870 1805 ft 0 kts 258°